Weather History for Twin Falls, ID

Change the Weather History Date:

Sunday, November 4, 2012

  Actual Average Record
Temperature  
Mean Temperature 56 °F -  
Max Temperature 66 °F 55 °F 71 °F (1981)
Min Temperature 45 °F 31 °F 12 °F (2002)
Degree Days  
Heating Degree Days 9 22  
Month to date heating degree days 54 86  
Since 1 July heating degree days 486 705  
Cooling Degree Days 0 0  
Month to date cooling degree days 0 0  
Year to date cooling degree days 970 680  
Growing Degree Days 4 (Base 50)    
Moisture  
Dew Point 30 °F    
Average Humidity 42    
Maximum Humidity 56    
Minimum Humidity 27    
Precipitation  
Precipitation 0.00 in 0.03 in 0.22 in (2008)
Month to date precipitation T 0.16  
Year to date precipitation 7.38 8.41  
Sea Level Pressure  
Sea Level Pressure 30.28 in    
Wind  
Wind Speed 10 mph (SW)    
Max Wind Speed 15 mph    
Max Gust Speed 20 mph    
Visibility 10 miles    
Events      
T = Trace of Precipitation, MM = Missing Value Source: NWS Daily Summary

Daily Weather History Graph

Daily Weather History Graph

Search for Another Location

Airport:

Trip Planner

Search our weather history database for the weather conditions in past years. The results will help you decide how hot, cold, wet, or windy it might be!

Date:

Astronomy

Nov. 04, 2012 Rise Set
Actual Time 7:15 AM MST 5:26 PM MST
Civil Twilight 6:46 AM MST 5:56 PM MST
Nautical Twilight 6:12 AM MST 6:29 PM MST
Astronomical Twilight 5:40 AM MST 7:02 PM MST
Moon 10:07 PM MST (11/4) 12:03 PM MST (11/4)
Length of Visible Light 11h 09m
Length of Day
10h 10m
Waning Gibbous, 71% of the Moon is Illuminated
Nov 4
Waning Gibbous
Nov 6
Last Quarter
Nov 13
New
Nov 20
First Quarter
Nov 28
Full

Hourly Weather History & Observations

Time (MST) Temp. Windchill Dew Point Humidity Pressure Visibility Wind Dir Wind Speed Gust Speed Precip Events Conditions
12:53 AM 48.0 °F - 28.0 °F 46% 30.17 in 10.0 mi South 10.4 mph - N/A   Clear
1:53 AM 46.0 °F 40.2 °F 27.0 °F 47% 30.19 in 10.0 mi SSW 12.7 mph - N/A   Clear
1:53 AM 46.9 °F - 28.0 °F 48% 30.19 in 10.0 mi SSW 8.1 mph - N/A   Clear
2:53 AM 48.0 °F - 27.0 °F 44% 30.20 in 10.0 mi South 10.4 mph - N/A   Clear
3:53 AM 46.9 °F - 28.0 °F 48% 30.19 in 10.0 mi South 11.5 mph - N/A   Clear
4:53 AM 46.0 °F 40.6 °F 28.0 °F 50% 30.21 in 10.0 mi SSW 11.5 mph - N/A   Clear
5:53 AM 45.0 °F 38.9 °F 28.0 °F 52% 30.26 in 10.0 mi SSW 12.7 mph - N/A   Clear
6:53 AM 46.9 °F - 28.0 °F 48% 30.27 in 10.0 mi SSW 10.4 mph - N/A   Clear
7:53 AM 46.9 °F - 28.0 °F 48% 30.30 in 10.0 mi SSW 9.2 mph - N/A   Clear
8:53 AM 52.0 °F - 30.0 °F 43% 30.31 in 10.0 mi South 8.1 mph - N/A   Clear
9:53 AM 57.9 °F - 28.9 °F 33% 30.30 in 10.0 mi SW 9.2 mph - N/A   Partly Cloudy
10:53 AM 62.1 °F - 28.0 °F 28% 30.31 in 9.0 mi West 10.4 mph - N/A   Overcast
11:53 AM 61.0 °F - 32.0 °F 34% 30.31 in 8.0 mi WNW 4.6 mph - N/A   Mostly Cloudy
12:53 PM 63.0 °F - 28.9 °F 28% 30.31 in 8.0 mi West 9.2 mph - N/A   Partly Cloudy
1:53 PM 64.9 °F - 30.9 °F 28% 30.29 in 10.0 mi West 8.1 mph - N/A   Clear
2:53 PM 64.9 °F - 32.0 °F 29% 30.28 in 10.0 mi West 12.7 mph 19.6 mph N/A   Clear
3:53 PM 64.0 °F - 34.0 °F 33% 30.30 in 10.0 mi West 13.8 mph - N/A   Clear
4:53 PM 59.0 °F - 34.0 °F 39% 30.30 in 10.0 mi WSW 6.9 mph - N/A   Clear
5:53 PM 52.0 °F - 34.0 °F 50% 30.33 in 10.0 mi SW 6.9 mph - N/A   Clear
6:53 PM 53.1 °F - 34.0 °F 48% 30.35 in 10.0 mi SW 9.2 mph - N/A   Clear
7:53 PM 51.1 °F - 34.0 °F 52% 30.36 in 10.0 mi SSW 11.5 mph - N/A   Clear
8:53 PM 48.9 °F - 33.1 °F 54% 30.35 in 10.0 mi South 12.7 mph - N/A   Clear
9:53 PM 50.0 °F - 33.1 °F 52% 30.35 in 10.0 mi South 11.5 mph - N/A   Clear
10:53 PM 48.9 °F - 33.1 °F 54% 30.33 in 10.0 mi South 12.7 mph - N/A   Clear